QPF
0.00 0.00 0.00 0.00 0.00 0.00 0.00 0.00 0.00 0.00 0.00 0.00 0.00 0.01 0.01 0.00 0.00 0.00 0.00 0.01 0.01 0.01 0.01 0.01 0.02 0.03 0.02 0.02 0.02 0.02 0.02 0.02 0.03 0.04 0.03 0.02 0.02 0.01 0.01 0.01 0.01 0.02 0.02 0.03
0.00 0.00 0.00 0.00 0.00 0.00 0.00 0.00 0.00 0.00 0.00 0.00 0.00 0.00 0.00 0.00 0.01 0.01 0.01 0.01 0.02 0.02 0.01 0.01 0.01 0.03 0.03 0.02 0.02 0.03 0.04 0.04 0.04 0.04 0.04 0.03 0.02 0.02 0.02 0.02 0.03 0.03 0.04 0.03
0.00 0.00 0.00 0.00 0.00 0.00 0.00 0.00 0.00 0.00 0.00 0.00 0.00 0.00 0.01 0.01 0.01 0.01 0.02 0.02 0.03 0.03 0.02 0.01 0.01 0.02 0.02 0.02 0.02 0.03 0.05 0.05 0.03 0.03 0.02 0.02 0.02 0.02 0.02 0.03 0.04 0.04 0.06 0.07
0.00 0.00 0.01 0.00 0.00 0.00 0.00 0.00 0.00 0.00 0.00 0.00 0.00 0.00 0.01 0.01 0.01 0.01 0.02 0.04 0.04 0.02 0.01 0.02 0.02 0.02 0.02 0.02 0.02 0.02 0.03 0.03 0.02 0.02 0.02 0.02 0.02 0.02 0.02 0.04 0.04 0.04 0.05 0.05
0.00 0.00 0.01 0.00 0.00 0.01 0.01 0.01 0.00 0.00 0.00 0.00 0.00 0.01 0.01 0.01 0.01 0.01 0.02 0.03 0.03 0.02 0.02 0.03 0.05 0.04 0.03 0.02 0.02 0.02 0.02 0.02 0.02 0.01 0.01 0.02 0.04 0.05 0.05 0.05 0.05 0.06 0.07 0.07
0.00 0.00 0.00 0.00 0.00 0.00 0.01 0.01 0.00 0.01 0.00 0.00 0.01 0.01 0.02 0.02 0.03 0.03 0.03 0.03 0.03 0.04 0.04 0.04 0.05 0.04 0.02 0.02 0.01 0.01 0.02 0.02 0.02 0.02 0.01 0.02 0.03 0.05 0.05 0.05 0.05 0.07 0.09 0.09
0.00 0.00 0.00 0.00 0.00 0.00 0.01 0.01 0.01 0.01 0.00 0.00 0.01 0.01 0.02 0.03 0.03 0.03 0.04 0.05 0.05 0.04 0.03 0.03 0.02 0.02 0.02 0.02 0.01 0.01 0.01 0.02 0.02 0.02 0.02 0.03 0.04 0.04 0.05 0.05 0.04 0.06 0.07 0.08
0.00 0.01 0.01 0.00 0.00 0.00 0.01 0.01 0.01 0.01 0.01 0.01 0.01 0.01 0.01 0.02 0.03 0.03 0.02 0.03 0.03 0.04 0.03 0.03 0.03 0.02 0.01 0.01 0.01 0.01 0.01 0.01 0.02 0.02 0.02 0.03 0.04 0.06 0.09 0.10 0.08 0.07 0.08 0.07
0.01 0.01 0.01 0.00 0.01 0.01 0.01 0.02 0.02 0.01 0.01 0.01 0.01 0.01 0.01 0.02 0.02 0.02 0.01 0.01 0.01 0.02 0.03 0.02 0.02 0.01 0.01 0.01 0.01 0.01 0.01 0.01 0.01 0.02 0.03 0.04 0.06 0.07 0.09 0.11 0.11 0.10 0.10 0.09
0.01 0.01 0.01 0.01 0.02 0.02 0.02 0.03 0.03 0.02 0.01 0.01 0.01 0.02 0.02 0.01 0.02 0.01 0.01 0.01 0.01 0.01 0.01 0.01 0.01 0.00 0.00 0.01 0.01 0.01 0.01 0.01 0.02 0.02 0.02 0.03 0.06 0.07 0.07 0.06 0.06 0.06 0.06 0.05
0.02 0.02 0.04 0.05 0.03 0.02 0.03 0.04 0.02 0.02 0.02 0.02 0.02 0.03 0.03 0.02 0.02 0.02 0.01 0.01 0.01 0.01 0.01 0.01 0.01 0.01 0.01 0.01 0.02 0.02 0.01 0.02 0.02 0.02 0.02 0.03 0.03 0.03 0.03 0.03 0.03 0.04 0.04 0.04
0.04 0.07 0.09 0.07 0.04 0.03 0.03 0.02 0.01 0.01 0.01 0.02 0.02 0.02 0.03 0.03 0.03 0.02 0.02 0.01 0.02 0.02 0.02 0.02 0.02 0.02 0.01 0.01 0.02 0.01 0.02 0.02 0.02 0.02 0.02 0.03 0.03 0.02 0.02 0.02 0.03 0.02 0.02 0.02
0.05 0.06 0.04 0.03 0.02 0.02 0.02 0.01 0.01 0.01 0.01 0.01 0.01 0.01 0.02 0.02 0.02 0.02 0.02 0.02 0.02 0.02 0.03 0.02 0.01 0.02 0.02 0.01 0.01 0.02 0.02 0.02 0.02 0.02 0.02 0.02 0.02 0.02 0.02 0.03 0.04 0.05 0.04 0.04
0.04 0.04 0.03 0.02 0.02 0.02 0.02 0.01 0.00 0.00 0.00 0.00 0.00 0.01 0.01 0.01 0.02 0.03 0.04 0.05 0.04 0.02 0.02 0.02 0.03 0.03 0.02 0.02 0.02 0.03 0.03 0.03 0.02 0.02 0.02 0.02 0.01 0.02 0.03 0.04 0.05 0.05 0.04 0.04
0.02 0.02 0.02 0.01 0.02 0.02 0.01 0.01 0.00 0.00 0.00 0.00 0.00 0.00 0.01 0.01 0.01 0.03 0.05 0.07 0.06 0.03 0.01 0.02 0.03 0.03 0.04 0.04 0.04 0.04 0.04 0.03 0.02 0.02 0.02 0.02 0.02 0.02 0.02 0.02 0.03 0.03 0.03 0.03
0.01 0.01 0.01 0.01 0.01 0.02 0.01 0.01 0.00 0.00 0.00 0.00 0.00 0.01 0.01 0.02 0.01 0.02 0.02 0.02 0.02 0.02 0.03 0.03 0.03 0.02 0.03 0.04 0.04 0.04 0.05 0.05 0.03 0.02 0.01 0.01 0.02 0.02 0.02 0.03 0.03 0.03 0.03 0.03
0.01 0.01 0.01 0.01 0.01 0.01 0.01 0.01 0.01 0.00 0.00 0.00 0.00 0.00 0.01 0.01 0.01 0.01 0.01 0.01 0.01 0.01 0.02 0.04 0.05 0.04 0.03 0.02 0.02 0.02 0.03 0.03 0.02 0.02 0.01 0.01 0.02 0.03 0.03 0.03 0.02 0.03 0.04 0.06
0.01 0.01 0.01 0.01 0.01 0.01 0.01 0.00 0.00 0.00 0.00 0.00 0.01 0.00 0.00 0.01 0.01 0.02 0.01 0.01 0.01 0.02 0.04 0.07 0.06 0.05 0.04 0.03 0.02 0.01 0.02 0.02 0.03 0.04 0.03 0.03 0.05 0.06 0.05 0.05 0.05 0.04 0.05 0.06
0.01 0.01 0.00 0.01 0.01 0.01 0.01 0.01 0.00 0.00 0.00 0.01 0.01 0.01 0.01 0.01 0.01 0.02 0.02 0.02 0.02 0.02 0.03 0.03 0.03 0.05 0.05 0.03 0.02 0.02 0.02 0.03 0.06 0.07 0.08 0.07 0.07 0.06 0.06 0.07 0.06 0.05 0.06 0.05
0.01 0.01 0.01 0.01 0.01 0.01 0.01 0.01 0.00 0.00 0.00 0.01 0.01 0.01 0.01 0.01 0.01 0.02 0.03 0.03 0.03 0.03 0.02 0.02 0.02 0.02 0.03 0.02 0.02 0.02 0.03 0.05 0.06 0.06 0.06 0.05 0.05 0.05 0.04 0.03 0.03 0.03 0.03 0.02
0.02 0.01 0.01 0.01 0.01 0.01 0.01 0.00 0.00 0.01 0.01 0.01 0.02 0.02 0.02 0.01 0.01 0.02 0.03 0.03 0.03 0.03 0.03 0.03 0.02 0.03 0.03 0.02 0.02 0.03 0.04 0.04 0.04 0.04 0.03 0.03 0.03 0.03 0.02 0.02 0.02 0.02 0.01 0.01
0.02 0.02 0.01 0.00 0.00 0.01 0.01 0.01 0.01 0.01 0.01 0.01 0.02 0.02 0.02 0.02 0.02 0.02 0.03 0.04 0.03 0.03 0.03 0.03 0.02 0.03 0.04 0.03 0.02 0.02 0.04 0.04 0.04 0.04 0.03 0.03 0.03 0.03 0.02 0.02 0.02 0.02 0.01 0.01
0.02 0.01 0.01 0.01 0.01 0.01 0.02 0.02 0.02 0.03 0.03 0.03 0.03 0.03 0.02 0.02 0.02 0.03 0.03 0.03 0.03 0.03 0.03 0.03 0.04 0.04 0.03 0.03 0.03 0.02 0.03 0.04 0.04 0.04 0.03 0.03 0.02 0.02 0.02 0.02 0.02 0.03 0.02 0.02
0.02 0.01 0.01 0.01 0.01 0.02 0.02 0.02 0.02 0.03 0.02 0.02 0.02 0.02 0.03 0.03 0.03 0.03 0.03 0.02 0.02 0.02 0.02 0.02 0.03 0.03 0.03 0.03 0.02 0.02 0.02 0.02 0.02 0.03 0.03 0.02 0.02 0.02 0.01 0.02 0.02 0.03 0.02 0.02
0.01 0.01 0.01 0.02 0.02 0.02 0.02 0.02 0.02 0.02 0.02 0.03 0.02 0.02 0.03 0.03 0.03 0.03 0.03 0.03 0.03 0.02 0.02 0.03 0.03 0.03 0.02 0.03 0.02 0.02 0.02 0.02 0.02 0.02 0.01 0.01 0.01 0.01 0.01 0.01 0.02 0.02 0.01 0.01
0.02 0.02 0.02 0.02 0.02 0.03 0.03 0.03 0.03 0.03 0.03 0.03 0.03 0.02 0.02 0.02 0.02 0.03 0.03 0.03 0.03 0.02 0.02 0.03 0.03 0.03 0.02 0.02 0.03 0.03 0.03 0.02 0.01 0.01 0.00 0.01 0.01 0.01 0.01 0.01 0.01 0.01 0.01 0.01
0.03 0.02 0.02 0.03 0.03 0.03 0.03 0.03 0.04 0.06 0.06 0.05 0.04 0.03 0.03 0.03 0.03 0.03 0.03 0.03 0.03 0.02 0.02 0.03 0.03 0.03 0.03 0.02 0.02 0.02 0.03 0.04 0.03 0.01 0.01 0.01 0.01 0.01 0.01 0.01 0.02 0.02 0.02 0.02
MSLP
1008.91 1008.68 1008.47 1008.30 1008.14 1007.97 1007.77 1007.49 1007.13 1006.68 1006.16 1005.61 1005.09 1004.65 1004.34 1004.19 1004.20 1004.39 1004.72 1005.16 1005.66 1006.20 1006.75 1007.29 1007.82 1008.35 1008.87 1009.40 1009.92 1010.44 1010.95 1011.42 1011.86 1012.27 1012.65 1013.01 1013.37 1013.73 1014.12 1014.52 1014.94 1015.35 1015.75 1016.13
1009.27 1008.99 1008.68 1008.37 1008.05 1007.72 1007.38 1007.00 1006.60 1006.18 1005.75 1005.34 1004.99 1004.72 1004.57 1004.55 1004.65 1004.88 1005.21 1005.61 1006.07 1006.55 1007.04 1007.54 1008.05 1008.57 1009.10 1009.64 1010.17 1010.70 1011.21 1011.68 1012.11 1012.50 1012.86 1013.20 1013.54 1013.88 1014.24 1014.63 1015.02 1015.42 1015.80 1016.15
1009.50 1009.18 1008.81 1008.40 1007.97 1007.53 1007.09 1006.65 1006.24 1005.86 1005.52 1005.24 1005.04 1004.93 1004.92 1005.00 1005.17 1005.41 1005.71 1006.06 1006.44 1006.84 1007.27 1007.72 1008.20 1008.71 1009.25 1009.80 1010.35 1010.89 1011.41 1011.88 1012.30 1012.67 1013.01 1013.33 1013.64 1013.96 1014.30 1014.67 1015.04 1015.42 1015.79 1016.13
1009.63 1009.31 1008.91 1008.45 1007.96 1007.45 1006.96 1006.51 1006.11 1005.78 1005.53 1005.36 1005.29 1005.29 1005.38 1005.52 1005.71 1005.94 1006.19 1006.47 1006.77 1007.09 1007.45 1007.85 1008.30 1008.80 1009.34 1009.91 1010.48 1011.04 1011.56 1012.03 1012.44 1012.80 1013.12 1013.41 1013.70 1014.00 1014.32 1014.67 1015.03 1015.41 1015.78 1016.13
1009.73 1009.42 1009.03 1008.56 1008.04 1007.52 1007.02 1006.57 1006.20 1005.92 1005.74 1005.66 1005.66 1005.75 1005.88 1006.05 1006.23 1006.42 1006.62 1006.81 1007.03 1007.28 1007.57 1007.93 1008.36 1008.86 1009.41 1010.00 1010.60 1011.17 1011.70 1012.18 1012.58 1012.93 1013.22 1013.49 1013.75 1014.03 1014.34 1014.68 1015.04 1015.42 1015.81 1016.18
1009.85 1009.57 1009.19 1008.73 1008.23 1007.71 1007.22 1006.79 1006.45 1006.20 1006.07 1006.03 1006.08 1006.20 1006.34 1006.50 1006.66 1006.80 1006.92 1007.05 1007.20 1007.39 1007.65 1007.98 1008.40 1008.91 1009.48 1010.09 1010.71 1011.30 1011.85 1012.32 1012.73 1013.06 1013.34 1013.59 1013.84 1014.10 1014.40 1014.73 1015.11 1015.50 1015.91 1016.31
1010.01 1009.74 1009.38 1008.95 1008.46 1007.96 1007.49 1007.08 1006.76 1006.53 1006.41 1006.39 1006.44 1006.54 1006.67 1006.80 1006.91 1007.00 1007.08 1007.16 1007.26 1007.43 1007.66 1008.00 1008.43 1008.95 1009.54 1010.18 1010.82 1011.44 1012.00 1012.48 1012.88 1013.20 1013.47 1013.71 1013.94 1014.20 1014.50 1014.84 1015.23 1015.65 1016.09 1016.53
1010.16 1009.89 1009.54 1009.13 1008.66 1008.19 1007.73 1007.33 1007.01 1006.78 1006.64 1006.60 1006.63 1006.70 1006.79 1006.88 1006.95 1007.01 1007.06 1007.12 1007.22 1007.38 1007.63 1007.98 1008.44 1008.99 1009.61 1010.27 1010.93 1011.56 1012.13 1012.61 1013.01 1013.33 1013.60 1013.83 1014.06 1014.32 1014.62 1014.98 1015.39 1015.84 1016.31 1016.78
1010.24 1009.96 1009.61 1009.20 1008.75 1008.28 1007.84 1007.43 1007.10 1006.85 1006.69 1006.61 1006.59 1006.62 1006.68 1006.74 1006.79 1006.84 1006.89 1006.97 1007.09 1007.28 1007.56 1007.95 1008.44 1009.01 1009.66 1010.33 1011.00 1011.64 1012.20 1012.69 1013.08 1013.40 1013.67 1013.90 1014.14 1014.41 1014.73 1015.10 1015.54 1016.02 1016.52 1017.03
1010.20 1009.89 1009.53 1009.12 1008.67 1008.21 1007.76 1007.34 1006.99 1006.71 1006.52 1006.40 1006.34 1006.34 1006.37 1006.43 1006.49 1006.56 1006.64 1006.76 1006.94 1007.18 1007.51 1007.93 1008.45 1009.04 1009.69 1010.36 1011.02 1011.64 1012.20 1012.67 1013.06 1013.38 1013.65 1013.89 1014.15 1014.43 1014.77 1015.17 1015.63 1016.14 1016.67 1017.21
1010.01 1009.67 1009.29 1008.86 1008.41 1007.94 1007.49 1007.06 1006.69 1006.39 1006.16 1006.01 1005.94 1005.93 1005.96 1006.03 1006.13 1006.25 1006.40 1006.59 1006.83 1007.13 1007.50 1007.96 1008.48 1009.07 1009.70 1010.34 1010.97 1011.56 1012.08 1012.54 1012.92 1013.24 1013.52 1013.78 1014.05 1014.35 1014.71 1015.14 1015.62 1016.15 1016.72 1017.28
1009.70 1009.33 1008.92 1008.49 1008.03 1007.56 1007.10 1006.67 1006.28 1005.96 1005.72 1005.56 1005.48 1005.48 1005.55 1005.66 1005.82 1006.02 1006.25 1006.51 1006.82 1007.18 1007.59 1008.05 1008.57 1009.12 1009.70 1010.29 1010.86 1011.40 1011.88 1012.31 1012.68 1013.00 1013.28 1013.56 1013.85 1014.18 1014.56 1015.00 1015.50 1016.05 1016.63 1017.20
1009.35 1008.95 1008.53 1008.09 1007.63 1007.16 1006.69 1006.25 1005.86 1005.53 1005.28 1005.13 1005.07 1005.10 1005.21 1005.39 1005.63 1005.91 1006.23 1006.57 1006.94 1007.34 1007.76 1008.22 1008.70 1009.20 1009.71 1010.22 1010.72 1011.20 1011.63 1012.03 1012.38 1012.70 1013.00 1013.29 1013.60 1013.95 1014.34 1014.79 1015.29 1015.84 1016.41 1016.98
1009.04 1008.64 1008.22 1007.77 1007.31 1006.83 1006.36 1005.91 1005.51 1005.18 1004.93 1004.79 1004.76 1004.83 1005.00 1005.25 1005.57 1005.93 1006.33 1006.74 1007.16 1007.58 1008.00 1008.43 1008.86 1009.29 1009.72 1010.15 1010.57 1010.98 1011.37 1011.74 1012.08 1012.41 1012.72 1013.03 1013.35 1013.71 1014.10 1014.53 1015.02 1015.54 1016.09 1016.63
1008.87 1008.47 1008.05 1007.60 1007.13 1006.64 1006.16 1005.69 1005.28 1004.94 1004.69 1004.56 1004.55 1004.66 1004.88 1005.20 1005.59 1006.03 1006.49 1006.96 1007.41 1007.84 1008.25 1008.64 1009.01 1009.37 1009.73 1010.08 1010.44 1010.79 1011.15 1011.50 1011.84 1012.17 1012.49 1012.81 1013.14 1013.49 1013.86 1014.27 1014.71 1015.18 1015.67 1016.16
1008.87 1008.48 1008.06 1007.61 1007.12 1006.61 1006.10 1005.60 1005.16 1004.80 1004.54 1004.40 1004.40 1004.54 1004.80 1005.17 1005.61 1006.11 1006.63 1007.13 1007.61 1008.05 1008.45 1008.80 1009.12 1009.43 1009.72 1010.02 1010.33 1010.65 1010.98 1011.33 1011.67 1012.01 1012.35 1012.68 1013.00 1013.32 1013.65 1014.00 1014.37 1014.77 1015.18 1015.59
1009.00 1008.63 1008.20 1007.73 1007.21 1006.67 1006.11 1005.58 1005.09 1004.69 1004.40 1004.24 1004.24 1004.39 1004.67 1005.07 1005.55 1006.09 1006.64 1007.18 1007.68 1008.13 1008.52 1008.86 1009.16 1009.42 1009.68 1009.95 1010.24 1010.55 1010.88 1011.23 1011.59 1011.94 1012.28 1012.60 1012.90 1013.18 1013.46 1013.73 1014.01 1014.30 1014.61 1014.93
1009.20 1008.82 1008.38 1007.88 1007.32 1006.72 1006.12 1005.52 1004.98 1004.52 1004.19 1004.00 1003.98 1004.12 1004.41 1004.83 1005.34 1005.91 1006.49 1007.06 1007.59 1008.06 1008.46 1008.80 1009.09 1009.36 1009.62 1009.88 1010.17 1010.49 1010.83 1011.19 1011.55 1011.91 1012.24 1012.54 1012.80 1013.03 1013.23 1013.42 1013.60 1013.79 1013.99 1014.20
1009.33 1008.93 1008.47 1007.93 1007.32 1006.67 1006.00 1005.34 1004.74 1004.24 1003.86 1003.63 1003.59 1003.71 1004.00 1004.43 1004.96 1005.55 1006.17 1006.77 1007.33 1007.84 1008.27 1008.64 1008.96 1009.24 1009.52 1009.80 1010.11 1010.43 1010.79 1011.15 1011.51 1011.86 1012.17 1012.44 1012.65 1012.81 1012.94 1013.04 1013.12 1013.21 1013.31 1013.44
1009.28 1008.86 1008.36 1007.78 1007.13 1006.43 1005.71 1005.00 1004.35 1003.80 1003.39 1003.14 1003.07 1003.19 1003.48 1003.92 1004.47 1005.09 1005.74 1006.38 1006.99 1007.53 1008.01 1008.42 1008.78 1009.11 1009.41 1009.72 1010.04 1010.38 1010.73 1011.08 1011.43 1011.75 1012.02 1012.24 1012.40 1012.50 1012.56 1012.59 1012.60 1012.61 1012.64 1012.70
1008.98 1008.54 1008.01 1007.40 1006.71 1005.98 1005.23 1004.50 1003.83 1003.26 1002.83 1002.57 1002.51 1002.63 1002.93 1003.39 1003.96 1004.61 1005.30 1005.98 1006.63 1007.23 1007.76 1008.22 1008.63 1008.99 1009.33 1009.65 1009.98 1010.31 1010.64 1010.97 1011.28 1011.55 1011.77 1011.94 1012.05 1012.10 1012.11 1012.09 1012.06 1012.04 1012.04 1012.07
1008.46 1007.99 1007.44 1006.81 1006.11 1005.37 1004.62 1003.90 1003.24 1002.69 1002.28 1002.04 1001.99 1002.14 1002.46 1002.94 1003.53 1004.21 1004.94 1005.66 1006.36 1007.00 1007.57 1008.08 1008.53 1008.92 1009.28 1009.60 1009.92 1010.23 1010.52 1010.80 1011.06 1011.27 1011.44 1011.56 1011.63 1011.65 1011.64 1011.61 1011.59 1011.58 1011.59 1011.64
1007.78 1007.29 1006.73 1006.11 1005.43 1004.71 1003.99 1003.31 1002.69 1002.19 1001.82 1001.63 1001.62 1001.80 1002.15 1002.65 1003.27 1003.98 1004.72 1005.48 1006.20 1006.88 1007.49 1008.02 1008.49 1008.90 1009.26 1009.58 1009.88 1010.14 1010.39 1010.61 1010.81 1010.97 1011.09 1011.17 1011.22 1011.24 1011.24 1011.24 1011.26 1011.30 1011.37 1011.48
1007.07 1006.57 1006.02 1005.42 1004.78 1004.11 1003.45 1002.84 1002.29 1001.85 1001.56 1001.42 1001.46 1001.67 1002.05 1002.57 1003.21 1003.92 1004.67 1005.44 1006.17 1006.86 1007.48 1008.03 1008.51 1008.92 1009.27 1009.57 1009.84 1010.06 1010.26 1010.43 1010.57 1010.69 1010.78 1010.85 1010.90 1010.95 1011.00 1011.06 1011.15 1011.28 1011.44 1011.62
1006.46 1005.97 1005.44 1004.87 1004.28 1003.68 1003.10 1002.56 1002.10 1001.75 1001.52 1001.44 1001.53 1001.77 1002.17 1002.69 1003.32 1004.02 1004.76 1005.50 1006.22 1006.90 1007.52 1008.06 1008.53 1008.94 1009.28 1009.56 1009.80 1010.00 1010.16 1010.30 1010.41 1010.51 1010.60 1010.68 1010.76 1010.86 1010.98 1011.12 1011.31 1011.53 1011.78 1012.05
1006.06 1005.58 1005.08 1004.56 1004.02 1003.49 1002.99 1002.54 1002.16 1001.88 1001.72 1001.70 1001.82 1002.08 1002.46 1002.96 1003.56 1004.22 1004.91 1005.61 1006.29 1006.94 1007.53 1008.06 1008.52 1008.92 1009.25 1009.53 1009.76 1009.95 1010.11 1010.25 1010.37 1010.48 1010.59 1010.71 1010.85 1011.01 1011.21 1011.45 1011.72 1012.03 1012.36 1012.70
1005.90 1005.45 1004.98 1004.50 1004.02 1003.56 1003.13 1002.76 1002.46 1002.24 1002.13 1002.14 1002.27 1002.52 1002.88 1003.33 1003.87 1004.46 1005.08 1005.72 1006.34 1006.94 1007.49 1008.00 1008.45 1008.84 1009.19 1009.48 1009.73 1009.94 1010.13 1010.30 1010.46 1010.62 1010.78 1010.96 1011.17 1011.40 1011.68 1011.99 1012.33 1012.70 1013.08 1013.46
Thickness
5765 5770 5769 5765 5766 5769 5769 5774 5774 5778 5778 5778 5780 5780 5780 5781 5781 5779 5778 5778 5777 5776 5776 5775 5773 5771 5770 5768 5767 5765 5762 5759 5757 5756 5755 5753 5752 5751 5750 5749 5748 5747 5745 5744
5752 5760 5760 5757 5762 5764 5764 5769 5771 5772 5771 5781 5779 5777 5773 5774 5773 5771 5771 5770 5770 5770 5770 5770 5769 5767 5765 5764 5762 5760 5757 5755 5754 5752 5750 5748 5747 5746 5745 5744 5743 5742 5740 5739
5743 5751 5748 5745 5759 5762 5763 5768 5769 5765 5771 5772 5768 5765 5764 5765 5765 5764 5764 5764 5763 5763 5764 5764 5764 5763 5760 5759 5757 5754 5752 5751 5750 5747 5745 5744 5743 5741 5740 5738 5737 5735 5734 5733
5740 5734 5721 5753 5767 5766 5761 5762 5767 5767 5767 5765 5762 5761 5762 5762 5759 5758 5758 5758 5757 5758 5759 5760 5760 5758 5755 5754 5751 5749 5747 5745 5744 5743 5740 5738 5737 5734 5733 5732 5731 5729 5728 5727
5732 5728 5734 5745 5755 5756 5751 5752 5760 5759 5757 5758 5758 5755 5753 5755 5753 5752 5752 5752 5751 5753 5754 5753 5753 5751 5748 5746 5744 5742 5740 5739 5739 5737 5735 5732 5729 5727 5726 5724 5723 5722 5721 5719
5725 5718 5719 5742 5753 5758 5749 5739 5751 5752 5749 5749 5749 5744 5743 5746 5746 5745 5745 5746 5745 5746 5746 5745 5744 5743 5740 5738 5736 5734 5734 5732 5731 5730 5728 5725 5722 5720 5719 5717 5716 5715 5713 5711
5717 5717 5732 5742 5747 5746 5727 5734 5745 5745 5743 5742 5741 5741 5740 5740 5738 5738 5738 5738 5738 5739 5737 5736 5736 5734 5731 5730 5728 5728 5728 5726 5724 5722 5721 5718 5715 5713 5711 5709 5707 5705 5703 5701
5714 5711 5721 5736 5736 5731 5731 5737 5739 5738 5737 5734 5733 5733 5732 5731 5730 5730 5729 5730 5729 5729 5728 5728 5727 5725 5722 5721 5722 5721 5720 5719 5717 5715 5714 5712 5708 5704 5702 5700 5697 5695 5693 5692
5717 5718 5722 5730 5731 5730 5732 5729 5730 5729 5729 5727 5725 5724 5723 5723 5722 5722 5722 5722 5722 5721 5719 5719 5718 5716 5713 5713 5714 5713 5712 5710 5709 5707 5705 5703 5700 5697 5695 5693 5691 5688 5686 5684
5706 5712 5715 5719 5722 5723 5724 5723 5724 5723 5722 5721 5718 5717 5716 5715 5715 5714 5714 5715 5714 5713 5711 5710 5710 5709 5708 5707 5706 5705 5703 5701 5700 5699 5697 5694 5692 5691 5688 5685 5682 5680 5677 5675
5699 5703 5706 5710 5712 5713 5714 5715 5715 5714 5714 5714 5712 5710 5709 5707 5707 5706 5706 5706 5706 5704 5703 5702 5702 5701 5701 5700 5698 5696 5695 5694 5693 5692 5689 5685 5683 5681 5679 5675 5672 5668 5667 5666
5698 5701 5700 5700 5705 5706 5704 5704 5705 5705 5705 5706 5705 5704 5703 5701 5701 5699 5698 5698 5697 5697 5696 5695 5695 5693 5693 5692 5691 5689 5687 5686 5686 5685 5682 5680 5676 5672 5666 5664 5659 5656 5653 5651
5696 5698 5698 5697 5698 5699 5698 5698 5699 5698 5697 5697 5698 5698 5696 5695 5694 5692 5691 5690 5689 5689 5689 5688 5687 5686 5685 5685 5683 5681 5680 5679 5678 5677 5674 5672 5669 5665 5660 5654 5649 5646 5643 5640
5690 5689 5687 5689 5690 5692 5692 5692 5692 5691 5691 5691 5690 5690 5689 5687 5686 5685 5684 5683 5683 5682 5681 5680 5679 5678 5677 5677 5675 5674 5673 5670 5668 5667 5666 5663 5660 5657 5654 5650 5646 5642 5636 5632
5682 5684 5684 5685 5685 5684 5685 5685 5684 5684 5684 5683 5683 5682 5680 5678 5677 5676 5676 5676 5675 5674 5673 5672 5671 5669 5669 5668 5667 5666 5665 5663 5661 5659 5657 5655 5651 5648 5645 5642 5639 5636 5634 5628
5676 5678 5678 5677 5677 5678 5679 5678 5677 5677 5677 5676 5675 5674 5673 5671 5670 5668 5668 5668 5666 5666 5665 5663 5662 5662 5661 5660 5658 5657 5655 5652 5650 5650 5648 5646 5643 5640 5637 5634 5631 5628 5625 5621
5669 5668 5669 5669 5670 5671 5672 5672 5671 5670 5670 5668 5667 5666 5664 5663 5661 5659 5659 5659 5659 5658 5657 5655 5654 5654 5653 5652 5651 5651 5650 5646 5640 5641 5640 5637 5635 5632 5630 5626 5622 5619 5615 5611
5669 5668 5667 5665 5665 5664 5664 5665 5664 5663 5662 5661 5660 5658 5657 5655 5653 5651 5651 5651 5650 5649 5648 5647 5646 5646 5645 5644 5643 5644 5643 5640 5637 5635 5633 5630 5627 5625 5621 5617 5614 5610 5606 5602
5662 5661 5660 5659 5659 5659 5658 5658 5657 5656 5654 5653 5651 5650 5649 5648 5646 5645 5644 5643 5642 5640 5639 5639 5636 5637 5637 5636 5634 5634 5635 5633 5630 5628 5625 5620 5618 5616 5613 5609 5604 5601 5598 5594
5654 5654 5653 5652 5652 5651 5650 5650 5649 5648 5647 5646 5644 5643 5642 5641 5639 5638 5638 5637 5636 5635 5633 5631 5631 5631 5629 5628 5625 5628 5626 5624 5623 5621 5617 5614 5610 5606 5603 5599 5595 5591 5588 5584
5645 5646 5645 5644 5644 5644 5644 5643 5642 5640 5639 5638 5637 5636 5635 5634 5633 5631 5631 5631 5629 5627 5626 5622 5623 5623 5622 5619 5617 5620 5618 5616 5614 5612 5609 5605 5601 5596 5592 5589 5586 5582 5578 5575
5638 5639 5638 5638 5637 5636 5636 5636 5636 5634 5632 5631 5631 5631 5629 5627 5626 5625 5624 5624 5623 5619 5620 5619 5618 5614 5613 5611 5613 5612 5610 5608 5605 5603 5599 5595 5591 5587 5583 5579 5576 5573 5569 5565
5632 5632 5632 5631 5630 5629 5629 5629 5628 5627 5626 5625 5624 5623 5623 5622 5622 5620 5618 5617 5617 5613 5613 5612 5608 5605 5604 5606 5606 5604 5602 5599 5597 5593 5590 5586 5583 5579 5575 5572 5568 5565 5561 5557
5626 5626 5626 5626 5625 5623 5622 5622 5622 5621 5620 5619 5619 5618 5618 5617 5616 5616 5615 5610 5608 5606 5607 5603 5600 5598 5597 5599 5598 5596 5594 5591 5589 5586 5583 5579 5575 5572 5568 5564 5560 5557 5553 5549
5621 5621 5621 5620 5619 5619 5618 5617 5616 5615 5615 5616 5615 5614 5614 5614 5613 5611 5609 5606 5602 5600 5600 5596 5593 5591 5593 5593 5592 5589 5586 5583 5581 5577 5574 5571 5568 5565 5561 5557 5553 5549 5545 5541
5616 5617 5617 5616 5616 5615 5615 5614 5613 5613 5613 5611 5610 5609 5609 5608 5606 5605 5603 5601 5598 5595 5595 5592 5590 5587 5588 5587 5585 5582 5579 5575 5572 5570 5567 5564 5561 5558 5554 5549 5545 5541 5537 5533
5611 5611 5611 5611 5611 5611 5610 5609 5608 5607 5607 5606 5604 5603 5602 5601 5600 5598 5597 5595 5594 5591 5590 5587 5586 5584 5582 5581 5578 5575 5572 5569 5566 5563 5560 5557 5553 5549 5545 5541 5537 5533 5528 5524